N850CB KPDX-CYVR

Flight info

Callsign N850CB
Flight time 0h 49m
Altitude 36000
Route DCT BTG J1 SEA DCT PAE GRIZZ9
Aircraft C700/L-SDE2E3FGHUTRWXY/LB1

Departure

Time 2026-05-08 04:07
Airport Portland International Airport (KPDX)

Arrival

Time 2026-05-08 04:57
Airport Vancouver International Airport (CYVR)
Time Latitude Longitude Altitude Speed Heading
2026-05-08 04:00 45.58191 -122.58054 24 ft 0 kts 206°
2026-05-08 04:05 45.58164 -122.58118 26 ft 14 kts 291°
2026-05-08 04:06 45.58189 -122.58283 25 ft 16 kts 236°
2026-05-08 04:06 45.58142 -122.58340 24 ft 0 kts 210°
2026-05-08 04:06 45.58130 -122.58349 26 ft 12 kts 209°
2026-05-08 04:07 45.58085 -122.58476 27 ft 19 kts 288°
2026-05-08 04:07 45.58245 -122.58892 29 ft 94 kts 300°
2026-05-08 04:07 45.58695 -122.60055 182 ft 170 kts 298°
2026-05-08 04:07 45.59365 -122.61775 747 ft 224 kts 299°
2026-05-08 04:08 45.60256 -122.63748 1809 ft 248 kts 316°
2026-05-08 04:08 45.61758 -122.64923 2758 ft 240 kts 344°
2026-05-08 04:08 45.63495 -122.65022 3148 ft 266 kts
2026-05-08 04:08 45.65170 -122.64245 3464 ft 240 kts 27°
2026-05-08 04:09 45.66599 -122.62751 3893 ft 269 kts 34°
2026-05-08 04:09 45.67911 -122.60958 4211 ft 250 kts 54°
2026-05-08 04:09 45.68704 -122.58900 4495 ft 223 kts 53°
2026-05-08 04:09 45.69973 -122.57623 4808 ft 248 kts 14°
2026-05-08 04:10 45.71724 -122.57781 5958 ft 264 kts 337°
2026-05-08 04:10 45.73376 -122.59167 7300 ft 290 kts 327°
2026-05-08 04:10 45.75415 -122.60076 8604 ft 328 kts 349°
2026-05-08 04:10 45.77768 -122.60251 10215 ft 348 kts 356°
2026-05-08 04:11 45.80243 -122.60141 11790 ft 366 kts
2026-05-08 04:11 45.82630 -122.58792 13401 ft 385 kts 31°
2026-05-08 04:11 45.84538 -122.56052 14988 ft 395 kts 52°
2026-05-08 04:11 45.85897 -122.52701 17017 ft 388 kts 57°
2026-05-08 04:12 45.87677 -122.49840 18651 ft 381 kts 34°
2026-05-08 04:12 45.90001 -122.48194 20167 ft 369 kts 11°
2026-05-08 04:12 45.92488 -122.47982 21770 ft 350 kts 347°
2026-05-08 04:12 45.94685 -122.49158 23451 ft 328 kts 323°
2026-05-08 04:13 45.96213 -122.51389 24953 ft 303 kts 298°
2026-05-08 04:13 45.97404 -122.53711 26476 ft 287 kts 316°
2026-05-08 04:13 45.99146 -122.54906 28094 ft 272 kts 343°
2026-05-08 04:13 46.00946 -122.55070 29793 ft 244 kts 354°
2026-05-08 04:14 46.02524 -122.54996 31097 ft 217 kts 355°
2026-05-08 04:14 46.04038 -122.54902 31612 ft 219 kts 355°
2026-05-08 04:14 46.05595 -122.54812 31968 ft 227 kts 354°
2026-05-08 04:14 46.07200 -122.54746 32372 ft 235 kts 356°
2026-05-08 04:15 46.08856 -122.54557 32779 ft 240 kts 355°
2026-05-08 04:15 46.10549 -122.54471 33198 ft 247 kts 355°
2026-05-08 04:15 46.12292 -122.54282 33625 ft 256 kts 359°
2026-05-08 04:15 46.14083 -122.53948 34049 ft 263 kts 359°
2026-05-08 04:16 46.15925 -122.53664 34425 ft 270 kts 358°
2026-05-08 04:16 46.17822 -122.53343 34796 ft 279 kts 360°
2026-05-08 04:16 46.19746 -122.52978 35177 ft 287 kts
2026-05-08 04:16 46.21752 -122.52601 35558 ft 293 kts
2026-05-08 04:17 46.23782 -122.52229 36082 ft 296 kts
2026-05-08 04:17 46.25899 -122.51852 36094 ft 317 kts
2026-05-08 04:17 46.28160 -122.51445 36102 ft 338 kts
2026-05-08 04:17 46.30563 -122.50998 36103 ft 358 kts
2026-05-08 04:18 46.33103 -122.50527 36112 ft 378 kts
2026-05-08 04:18 46.35783 -122.50035 36108 ft 397 kts
2026-05-08 04:18 46.38589 -122.49519 36101 ft 415 kts
2026-05-08 04:18 46.41513 -122.48980 36103 ft 432 kts
2026-05-08 04:19 46.44513 -122.48426 36101 ft 448 kts
2026-05-08 04:19 46.47664 -122.47844 36095 ft 464 kts
2026-05-08 04:19 46.54025 -122.46651 36093 ft 454 kts
2026-05-08 04:20 46.60319 -122.45499 36092 ft 457 kts
2026-05-08 04:20 46.66655 -122.44312 36106 ft 460 kts
2026-05-08 04:21 46.72961 -122.43142 36094 ft 459 kts
2026-05-08 04:21 46.79301 -122.41957 36099 ft 459 kts
2026-05-08 04:22 46.85625 -122.41687 36078 ft 452 kts 352°
2026-05-08 04:22 46.88784 -122.41307 36080 ft 460 kts
2026-05-08 04:22 46.91928 -122.40382 36087 ft 461 kts
2026-05-08 04:23 46.98245 -122.38948 36112 ft 456 kts 360°
2026-05-08 04:23 47.04577 -122.38070 36106 ft 458 kts
2026-05-08 04:24 47.10893 -122.36776 36107 ft 457 kts
2026-05-08 04:24 47.17208 -122.35745 36097 ft 457 kts
2026-05-08 04:25 47.23521 -122.34553 36099 ft 457 kts
2026-05-08 04:25 47.29795 -122.33458 36111 ft 457 kts
2026-05-08 04:26 47.36113 -122.32292 36117 ft 457 kts
2026-05-08 04:26 47.42434 -122.31172 36105 ft 457 kts
2026-05-08 04:27 47.48757 -122.30032 36105 ft 457 kts
2026-05-08 04:27 47.55062 -122.29145 36091 ft 450 kts 353°
2026-05-08 04:28 47.61315 -122.29519 36095 ft 451 kts 354°
2026-05-08 04:28 47.67616 -122.28991 36102 ft 454 kts 359°
2026-05-08 04:29 47.73867 -122.28728 36106 ft 451 kts 355°
2026-05-08 04:29 47.80158 -122.28399 36125 ft 452 kts 357°
2026-05-08 04:30 47.86434 -122.28058 36085 ft 451 kts 356°
2026-05-08 04:30 47.89594 -122.27927 35680 ft 458 kts 356°
2026-05-08 04:30 47.92776 -122.27770 35238 ft 455 kts 356°
2026-05-08 04:31 47.95898 -122.27963 34745 ft 445 kts 346°
2026-05-08 04:31 47.98907 -122.28968 34210 ft 440 kts 339°
2026-05-08 04:31 48.01831 -122.30282 33561 ft 439 kts 338°
2026-05-08 04:31 48.04763 -122.31607 32908 ft 441 kts 339°
2026-05-08 04:32 48.07777 -122.32626 32269 ft 447 kts 345°
2026-05-08 04:32 48.10864 -122.33336 31672 ft 449 kts 347°
2026-05-08 04:32 48.13950 -122.34053 31037 ft 448 kts 346°
2026-05-08 04:32 48.17024 -122.34992 29684 ft 453 kts 343°
2026-05-08 04:33 48.20098 -122.36011 28633 ft 448 kts 344°
2026-05-08 04:33 48.23102 -122.36878 27657 ft 443 kts 346°
2026-05-08 04:33 48.26120 -122.37683 26643 ft 438 kts 346°
2026-05-08 04:33 48.29098 -122.38538 25681 ft 433 kts 345°
2026-05-08 04:34 48.32037 -122.39433 24764 ft 428 kts 345°
2026-05-08 04:34 48.34950 -122.40296 23880 ft 425 kts 346°
2026-05-08 04:34 48.37832 -122.41118 23279 ft 413 kts 346°
2026-05-08 04:34 48.40567 -122.41902 23276 ft 388 kts 345°
2026-05-08 04:35 48.43138 -122.42663 23260 ft 367 kts 345°
2026-05-08 04:35 48.45585 -122.43389 23102 ft 352 kts 345°
2026-05-08 04:35 48.47989 -122.44097 22501 ft 352 kts 345°
2026-05-08 04:35 48.50387 -122.44799 21991 ft 350 kts 345°
2026-05-08 04:36 48.52760 -122.45646 21028 ft 356 kts 338°
2026-05-08 04:36 48.54969 -122.47170 19837 ft 351 kts 327°
2026-05-08 04:36 48.56984 -122.49212 18683 ft 348 kts 322°
2026-05-08 04:36 48.59017 -122.51171 17417 ft 349 kts 333°
2026-05-08 04:37 48.61384 -122.51901 16010 ft 350 kts 358°
2026-05-08 04:37 48.63798 -122.51545 14592 ft 345 kts
2026-05-08 04:37 48.66149 -122.50992 13135 ft 339 kts
2026-05-08 04:37 48.68481 -122.50612 11639 ft 334 kts
2026-05-08 04:38 48.70782 -122.50627 10340 ft 327 kts 353°
2026-05-08 04:38 48.72896 -122.51254 10092 ft 289 kts 345°
2026-05-08 04:38 48.74779 -122.52014 10082 ft 274 kts 345°
2026-05-08 04:38 48.76588 -122.52699 10075 ft 262 kts 341°
2026-05-08 04:39 48.78035 -122.54211 10077 ft 250 kts 306°
2026-05-08 04:39 48.78760 -122.56527 10089 ft 239 kts 291°
2026-05-08 04:39 48.79573 -122.58725 9878 ft 244 kts 301°
2026-05-08 04:39 48.80533 -122.60925 9421 ft 256 kts 301°
2026-05-08 04:40 48.81442 -122.63261 8978 ft 265 kts 297°
2026-05-08 04:40 48.82342 -122.65742 8528 ft 272 kts 298°
2026-05-08 04:40 48.83293 -122.68265 8092 ft 278 kts 298°
2026-05-08 04:40 48.84263 -122.70828 7657 ft 282 kts 298°
2026-05-08 04:41 48.85235 -122.73436 7223 ft 285 kts 298°
2026-05-08 04:41 48.86209 -122.76057 6946 ft 282 kts 298°
2026-05-08 04:41 48.87175 -122.78656 6580 ft 283 kts 298°
2026-05-08 04:41 48.88130 -122.81276 6197 ft 283 kts 297°
2026-05-08 04:42 48.89061 -122.83904 5822 ft 282 kts 297°
2026-05-08 04:42 48.89992 -122.86513 5450 ft 279 kts 298°
2026-05-08 04:42 48.90922 -122.89093 5077 ft 277 kts 298°
2026-05-08 04:42 48.91836 -122.91642 4697 ft 271 kts 298°
2026-05-08 04:43 48.92709 -122.94084 4304 ft 259 kts 298°
2026-05-08 04:43 48.93545 -122.96421 3905 ft 245 kts 298°
2026-05-08 04:43 48.94340 -122.98649 3516 ft 235 kts 297°
2026-05-08 04:43 48.95109 -123.00799 3126 ft 228 kts 297°
2026-05-08 04:44 48.95839 -123.02842 3084 ft 213 kts 297°
2026-05-08 04:44 48.96543 -123.04820 3081 ft 214 kts 297°
2026-05-08 04:44 48.97254 -123.06821 3082 ft 216 kts 297°
2026-05-08 04:44 48.97973 -123.08836 3084 ft 218 kts 297°
2026-05-08 04:45 48.98697 -123.10872 3090 ft 219 kts 297°
2026-05-08 04:45 48.99423 -123.12917 3088 ft 220 kts 297°
2026-05-08 04:45 49.00153 -123.14977 3091 ft 221 kts 297°
2026-05-08 04:45 49.00886 -123.17041 3090 ft 222 kts 297°
2026-05-08 04:46 49.01621 -123.19113 3092 ft 222 kts 297°
2026-05-08 04:46 49.02356 -123.21190 3093 ft 223 kts 297°
2026-05-08 04:46 49.03091 -123.23271 3094 ft 224 kts 298°
2026-05-08 04:46 49.03834 -123.25366 3089 ft 225 kts 298°
2026-05-08 04:47 49.04576 -123.27467 3093 ft 225 kts 298°
2026-05-08 04:47 49.05322 -123.29580 3090 ft 226 kts 298°
2026-05-08 04:47 49.06065 -123.31686 3089 ft 225 kts 298°
2026-05-08 04:47 49.06797 -123.33762 3087 ft 225 kts 298°
2026-05-08 04:48 49.07536 -123.35862 3090 ft 225 kts 298°
2026-05-08 04:48 49.08277 -123.37964 3089 ft 225 kts 298°
2026-05-08 04:48 49.09017 -123.40061 3089 ft 225 kts 298°
2026-05-08 04:48 49.09964 -123.41942 3075 ft 222 kts 314°
2026-05-08 04:49 49.10939 -123.43760 3082 ft 218 kts 308°
2026-05-08 04:49 49.11823 -123.45650 3063 ft 219 kts 303°
2026-05-08 04:49 49.12537 -123.47707 3018 ft 220 kts 293°
2026-05-08 04:49 49.13227 -123.49750 3062 ft 217 kts 309°
2026-05-08 04:50 49.14484 -123.50948 3067 ft 217 kts 348°
2026-05-08 04:50 49.15981 -123.51013 3094 ft 216 kts
2026-05-08 04:50 49.17484 -123.50846 3094 ft 217 kts
2026-05-08 04:50 49.18483 -123.50727 3091 ft 218 kts
2026-05-08 04:51 49.20492 -123.50488 3086 ft 219 kts
2026-05-08 04:51 49.21518 -123.50370 3090 ft 218 kts
2026-05-08 04:51 49.23303 -123.49329 3067 ft 207 kts 48°
2026-05-08 04:51 49.24035 -123.47550 3075 ft 190 kts 65°
2026-05-08 04:52 49.24447 -123.45713 2995 ft 179 kts 91°
2026-05-08 04:52 49.24229 -123.44519 2966 ft 171 kts 120°
2026-05-08 04:52 49.23673 -123.43041 2987 ft 151 kts 117°
2026-05-08 04:52 49.23286 -123.41601 2641 ft 144 kts 111°
2026-05-08 04:53 49.22970 -123.40185 2348 ft 136 kts 108°
2026-05-08 04:53 49.22723 -123.38853 2142 ft 132 kts 105°
2026-05-08 04:53 49.22547 -123.37498 2020 ft 127 kts 103°
2026-05-08 04:53 49.22384 -123.36156 1927 ft 128 kts 103°
2026-05-08 04:54 49.22233 -123.34801 1858 ft 131 kts 101°
2026-05-08 04:54 49.22100 -123.33393 1753 ft 136 kts 101°
2026-05-08 04:54 49.21944 -123.31946 1650 ft 140 kts 103°
2026-05-08 04:54 49.21745 -123.30479 1497 ft 143 kts 105°
2026-05-08 04:55 49.21529 -123.29032 1357 ft 130 kts 105°
2026-05-08 04:55 49.21407 -123.27681 1121 ft 128 kts 98°
2026-05-08 04:55 49.21281 -123.26345 887 ft 126 kts 102°
2026-05-08 04:55 49.21106 -123.25082 760 ft 120 kts 104°
2026-05-08 04:56 49.20965 -123.23801 544 ft 121 kts 102°
2026-05-08 04:56 49.20793 -123.22538 375 ft 122 kts 102°
2026-05-08 04:56 49.20653 -123.21255 208 ft 123 kts 102°
2026-05-08 04:56 49.20506 -123.19991 47 ft 122 kts 102°
2026-05-08 04:57 49.20374 -123.18836 15 ft 90 kts 101°
2026-05-08 04:57 49.20292 -123.18102 12 ft 54 kts 100°
2026-05-08 04:57 49.20214 -123.17692 10 ft 30 kts 121°
2026-05-08 04:57 49.20115 -123.17494 11 ft 8 kts 129°
2026-05-08 04:58 49.20072 -123.17430 11 ft 9 kts 142°
2026-05-08 04:58 49.20030 -123.17365 11 ft 8 kts 157°
2026-05-08 04:58 49.20019 -123.17361 11 ft 1 kts 172°
2026-05-08 04:58 49.19996 -123.17399 11 ft 11 kts 280°
2026-05-08 04:59 49.20017 -123.17570 11 ft 23 kts 279°
2026-05-08 04:59 49.20051 -123.17858 11 ft 27 kts 280°
2026-05-08 04:59 49.20083 -123.18126 11 ft 23 kts 279°
2026-05-08 04:59 49.20109 -123.18369 12 ft 25 kts 279°
2026-05-08 05:00 49.20135 -123.18604 12 ft 21 kts 280°
2026-05-08 05:00 49.20167 -123.18866 12 ft 25 kts 278°
2026-05-08 05:00 49.20145 -123.19020 12 ft 12 kts 205°
2026-05-08 05:00 49.20123 -123.19035 12 ft 7 kts 199°
2026-05-08 05:01 49.20020 -123.19060 12 ft 23 kts 189°
2026-05-08 05:01 49.19848 -123.19100 11 ft 22 kts 190°
2026-05-08 05:01 49.19699 -123.19143 11 ft 20 kts 191°
2026-05-08 05:01 49.19566 -123.19165 11 ft 19 kts 162°
2026-05-08 05:02 49.19435 -123.19018 11 ft 28 kts 142°
2026-05-08 05:02 49.19269 -123.18818 12 ft 30 kts 141°
2026-05-08 05:02 49.19125 -123.18647 12 ft 24 kts 142°
2026-05-08 05:02 49.19001 -123.18496 12 ft 12 kts 142°
2026-05-08 05:03 49.18910 -123.18382 12 ft 19 kts 140°
2026-05-08 05:03 49.18777 -123.18228 11 ft 30 kts 142°
2026-05-08 05:03 49.18599 -123.18013 13 ft 34 kts 142°
2026-05-08 05:03 49.18475 -123.17787 13 ft 27 kts 99°
2026-05-08 05:04 49.18439 -123.17478 13 ft 32 kts 101°
2026-05-08 05:04 49.18370 -123.17286 13 ft 21 kts 149°
2026-05-08 05:04 49.18256 -123.17157 13 ft 18 kts 120°
2026-05-08 05:04 49.18232 -123.16987 13 ft 7 kts 150°
2026-05-08 05:05 49.18216 -123.16978 13 ft 6 kts 170°
2026-05-08 05:05 49.18188 -123.16986 13 ft 0 kts 189°